DH0GMA Weather Reports


Display with metric or nautical units.
time (UTC)temp
F
wind
direction
speed
MPH
gust
MPH
rain 1hr
in
rain 24hr
in
rain mn
in
humidity
%
barometer
mb
20260901130744 74 227 2.0 6.0 0.00 0.00 0.00 52 1020.1
20260901125744 75 161 4.0 11.0 0.00 0.00 0.00 51 1020.3
20260901124745 75 325 0.0 3.0 0.00 0.00 0.00 55 1020.4
20260901123745 74 211 2.0 4.0 0.00 0.00 0.00 56 1020.4
20260901122745 73 247 1.0 4.0 0.00 0.00 0.00 55 1020.4
20260901121746 73 268 0.0 1.0 0.00 0.00 0.00 58 1020.4
20260901120746 74 267 0.0 3.0 0.00 0.00 0.00 57 1020.5
20260901115746 75 332 1.0 4.0 0.00 0.00 0.00 56 1020.5
20260901114746 74 318 1.0 5.0 0.00 0.00 0.00 57 1020.6
20260901113747 73 114 1.0 3.0 0.00 0.00 0.00 59 1020.7
20260901112747 72 346 0.0 4.0 0.00 0.00 0.00 61 1020.7
20260901111747 71 281 0.0 4.0 0.00 0.00 0.00 62 1020.7
20260901110747 71 325 1.0 6.0 0.00 0.00 0.00 61 1020.8
20260901105747 72 331 1.0 4.0 0.00 0.00 0.00 59 1020.7
20260901104746 74 284 1.0 4.0 0.00 0.00 0.00 57 1020.6
20260901103746 74 278 1.0 10.0 0.00 0.00 0.00 56 1020.6
20260901102746 74 232 2.0 5.0 0.00 0.00 0.00 57 1020.7
20260901101747 72 205 3.0 7.0 0.00 0.00 0.00 59 1020.7
20260901100747 72 171 6.0 12.0 0.00 0.00 0.00 59 1020.8
20260901095747 72 227 3.0 7.0 0.00 0.00 0.00 61 1020.8
20260901094747 72 248 2.0 4.0 0.00 0.00 0.00 62 1021.0
20260901093746 72 196 1.0 8.0 0.00 0.00 0.00 63 1021.0
20260901092746 71 285 2.0 5.0 0.00 0.00 0.00 64 1021.1
20260901091746 71 237 1.0 4.0 0.00 0.00 0.00 64 1021.1
20260901090747 71 217 0.0 3.0 0.00 0.00 0.00 65 1021.2
20260901085747 71 237 1.0 4.0 0.00 0.00 0.00 65 1021.2
20260901084747 71 272 1.0 3.0 0.00 0.00 0.00 64 1021.3
20260901083747 70 278 1.0 2.0 0.00 0.00 0.00 66 1021.2
20260901082747 69 237 2.0 3.0 0.00 0.00 0.00 68 1021.3
20260901081746 68 203 1.0 4.0 0.00 0.00 0.00 70 1021.3
20260901080746 67 251 1.0 3.0 0.00 0.00 0.00 72 1021.2
20260901075747 67 181 0.0 3.0 0.00 0.00 0.00 74 1021.1
20260901074747 66 191 1.0 2.0 0.00 0.00 0.00 73 1021.1
20260901073747 66 153 3.0 4.0 0.00 0.00 0.00 71 1021.0
20260901072747 65 255 0.0 3.0 0.00 0.00 0.00 74 1021.0
20260901071746 64 253 1.0 3.0 0.00 0.00 0.00 75 1021.0
20260901070746 64 253 2.0 4.0 0.00 0.00 0.00 76 1021.1
20260901065747 63 210 1.0 3.0 0.00 0.00 0.00 77 1021.1
20260901064747 62 189 1.0 2.0 0.00 0.00 0.00 80 1021.0
20260901063747 60 187 0.0 2.0 0.00 0.00 0.00 82 1021.0
20260901062747 60 187 0.0 0.0 0.00 0.00 0.00 83 1021.0
20260901061746 59 187 0.0 2.0 0.00 0.00 0.00 83 1021.0
20260901060746 59 187 0.0 2.0 0.00 0.00 0.00 84 1021.1
20260901055746 58 187 0.0 0.0 0.00 0.00 0.00 85 1021.1
20260901054747 57 187 0.0 1.0 0.00 0.00 0.00 86 1021.0
20260901053747 57 187 0.0 0.0 0.00 0.00 0.00 86 1020.9
20260901052747 57 187 0.0 0.0 0.00 0.00 0.00 86 1020.9
20260901051747 56 186 0.0 1.0 0.00 0.00 0.00 87 1020.7
20260901050747 56 186 0.0 0.0 0.00 0.00 0.00 87 1020.8
20260901045747 56 186 0.0 0.0 0.00 0.00 0.00 87 1020.8
20260901044747 56 186 0.0 0.0 0.00 0.00 0.00 87 1020.8
20260901043746 56 186 0.0 0.0 0.00 0.00 0.00 87 1020.7
20260901042746 56 186 0.0 0.0 0.00 0.00 0.00 87 1020.9
20260901041747 55 186 0.0 0.0 0.00 0.00 0.00 86 1020.9
20260901040747 55 186 0.0 0.0 0.00 0.00 0.00 86 1020.8
20260901035747 55 186 0.0 0.0 0.00 0.00 0.00 85 1020.8
20260901034747 56 186 0.0 0.0 0.00 0.00 0.00 85 1020.8
20260901033746 56 186 0.0 0.0 0.00 0.00 0.00 85 1020.7
20260901032746 55 186 0.0 0.0 0.00 0.00 0.00 84 1020.7
20260901031746 56 186 0.0 0.0 0.00 0.00 0.00 84 1020.7
20260901030746 56 186 0.0 0.0 0.00 0.00 0.00 84 1020.8
20260901025747 56 186 0.0 0.0 0.00 0.00 0.00 83 1020.9
20260901024747 56 186 0.0 0.0 0.00 0.00 0.00 83 1020.7
20260901023747 56 186 0.0 0.0 0.00 0.00 0.00 83 1020.7
20260901022746 57 186 0.0 1.0 0.00 0.00 0.00 83 1020.8
20260901021746 57 186 0.0 0.0 0.00 0.00 0.00 82 1020.7
20260901020746 57 186 0.0 0.0 0.00 0.00 0.00 81 1020.8
20260901015746 58 186 0.0 0.0 0.00 0.01 0.00 80 1020.7
20260901014746 58 186 0.0 0.0 0.00 0.01 0.00 80 1020.7
20260901013745 58 186 0.0 0.0 0.00 0.01 0.00 79 1020.6
20260901012745 59 186 0.0 1.0 0.00 0.01 0.00 79 1020.7
20260901011747 59 186 0.0 3.0 0.00 0.01 0.00 78 1020.6
20260901010747 59 187 0.0 3.0 0.00 0.01 0.00 77 1020.8
20260901005747 60 185 1.0 3.0 0.00 0.13 0.00 77 1020.6
20260901004747 60 193 2.0 3.0 0.00 0.13 0.00 76 1020.5
20260901003747 60 175 1.0 3.0 0.00 0.13 0.00 76 1020.6
20260901002746 60 182 0.0 2.0 0.00 0.13 0.00 76 1020.4
20260901001746 60 181 2.0 3.0 0.00 0.13 0.00 75 1020.4
20260901000746 60 168 1.0 4.0 0.00 0.13 0.00 75 1020.3
20260831235746 61 176 1.0 3.0 0.00 0.13 0.00 75 1020.3
20260831234746 61 174 1.0 2.0 0.00 0.13 0.00 74 1020.3
20260831233747 61 171 1.0 3.0 0.00 0.13 0.00 74 1020.3
20260831232747 61 170 1.0 2.0 0.00 0.13 0.00 73 1020.2
20260831231747 62 170 0.0 2.0 0.00 0.13 0.00 73 1020.2
20260831230747 62 168 1.0 3.0 0.00 0.13 0.00 72 1020.1
20260831225746 62 167 1.0 3.0 0.00 0.13 0.00 71 1020.0
20260831224745 62 163 1.0 3.0 0.00 0.13 0.00 71 1020.1
20260831223746 62 164 1.0 3.0 0.00 0.13 0.00 71 1020.1
20260831222746 62 170 3.0 4.0 0.00 0.13 0.00 70 1020.2
20260831221746 63 192 1.0 3.0 0.00 0.13 0.00 70 1020.1
20260831220746 63 200 2.0 3.0 0.00 0.13 0.00 69 1020.0
20260831215746 63 201 1.0 3.0 0.00 0.13 0.13 68 1020.0
20260831214745 63 199 1.0 3.0 0.00 0.13 0.13 68 1020.1
20260831213745 63 188 1.0 3.0 0.00 0.13 0.13 68 1019.9
20260831212745 63 191 1.0 3.0 0.00 0.13 0.13 69 1019.9
20260831211745 63 141 1.0 2.0 0.00 0.13 0.13 68 1019.9
20260831210747 63 133 2.0 4.0 0.00 0.13 0.13 68 1019.7
20260831205747 63 171 2.0 4.0 0.00 0.13 0.13 67 1019.7
20260831204747 64 181 2.0 3.0 0.00 0.13 0.13 66 1019.7
20260831203746 64 172 2.0 3.0 0.00 0.13 0.13 66 1019.7
20260831202745 64 237 1.0 3.0 0.00 0.13 0.13 65 1019.5
20260831201745 64 227 0.0 3.0 0.00 0.13 0.13 64 1019.4
20260831200745 65 250 2.0 4.0 0.00 0.13 0.13 64 1019.4
20260831195747 65 258 1.0 7.0 0.00 0.13 0.13 63 1019.3
20260831194747 65 189 0.0 4.0 0.00 0.13 0.13 62 1019.3
20260831193747 66 250 2.0 3.0 0.00 0.13 0.13 62 1019.2
20260831192747 67 219 1.0 4.0 0.00 0.13 0.13 61 1019.1
20260831191746 67 308 0.0 4.0 0.00 0.13 0.13 60 1019.0
20260831190746 68 303 3.0 9.0 0.00 0.13 0.13 58 1018.7
20260831185746 68 265 2.0 5.0 0.00 0.13 0.13 57 1018.5
20260831184746 69 214 2.0 10.0 0.00 0.13 0.13 56 1018.2
20260831183746 69 307 3.0 10.0 0.00 0.13 0.13 55 1018.0
20260831182746 69 292 2.0 10.0 0.00 0.13 0.13 55 1017.8
20260831181746 69 137 2.0 4.0 0.00 0.13 0.13 55 1017.7
20260831180746 70 279 1.0 4.0 0.00 0.13 0.13 54 1017.3
20260831175745 71 274 1.0 3.0 0.00 0.13 0.13 53 1017.1
20260831174745 71 281 1.0 5.0 0.00 0.13 0.13 53 1017.0
20260831173745 72 242 1.0 8.0 0.00 0.13 0.13 52 1016.9
20260831172747 73 256 1.0 3.0 0.00 0.13 0.13 51 1016.8
20260831171747 73 294 1.0 6.0 0.00 0.13 0.13 50 1016.7
20260831170747 75 205 2.0 6.0 0.00 0.13 0.13 48 1016.7
20260831165746 75 304 3.0 4.0 0.00 0.13 0.13 48 1016.4
20260831164746 76 259 3.0 5.0 0.00 0.13 0.13 47 1016.3
20260831163746 76 295 4.0 10.0 0.00 0.13 0.13 47 1016.3
20260831162746 76 188 6.0 11.0 0.00 0.13 0.13 46 1016.4
20260831161746 76 232 4.0 12.0 0.00 0.13 0.13 43 1016.1
20260831160746 76 279 2.0 10.0 0.00 0.13 0.13 43 1016.1
20260831155746 76 232 2.0 11.0 0.00 0.13 0.13 44 1016.0
20260831154745 77 220 4.0 11.0 0.00 0.13 0.13 44 1016.0
20260831153745 77 227 5.0 11.0 0.00 0.13 0.13 44 1015.9
20260831152745 77 124 4.0 11.0 0.00 0.13 0.13 44 1015.8
20260831151745 77 276 8.0 14.0 0.00 0.13 0.13 44 1015.9
20260831150745 77 241 3.0 10.0 0.00 0.13 0.13 47 1015.9
20260831145746 77 227 2.0 11.0 0.00 0.13 0.13 48 1016.1
20260831144746 77 148 3.0 8.0 0.00 0.13 0.13 47 1016.1
20260831143746 77 195 2.0 7.0 0.00 0.13 0.13 48 1016.2
20260831142745 78 222 2.0 11.0 0.00 0.13 0.13 50 1016.0
20260831141745 78 196 3.0 15.0 0.00 0.13 0.13 48 1016.1
20260831140745 78 338 3.0 8.0 0.00 0.13 0.13 50 1016.2
20260831135745 78 150 5.0 10.0 0.00 0.13 0.13 49 1016.3
20260831134745 77 153 3.0 8.0 0.00 0.13 0.13 51 1016.2
20260831133747 77 249 1.0 5.0 0.00 0.13 0.13 51 1016.3
20260831132746 77 294 2.0 6.0 0.00 0.13 0.13 51 1016.3
20260831131746 77 218 3.0 9.0 0.00 0.13 0.13 51 1016.3